Year,Month,Day,Hour,Minute,Value (Times are PST for temperature in C)
2017,04,20,00,00,5.90
2017,04,20,00,01,5.90
2017,04,20,00,02,5.90
2017,04,20,00,03,5.90
2017,04,20,00,04,5.90
2017,04,20,00,05,5.90
2017,04,20,00,06,5.80
2017,04,20,00,07,5.80
2017,04,20,00,08,5.80
2017,04,20,00,09,5.80
2017,04,20,00,10,5.80
2017,04,20,00,11,5.80
2017,04,20,00,12,5.80
2017,04,20,00,13,5.70
2017,04,20,00,14,5.70
2017,04,20,00,15,5.70
2017,04,20,00,16,5.70
2017,04,20,00,17,5.70
2017,04,20,00,18,5.70
2017,04,20,00,19,5.60
2017,04,20,00,20,5.60
2017,04,20,00,21,5.60
2017,04,20,00,22,5.60
2017,04,20,00,23,5.60
2017,04,20,00,24,5.60
2017,04,20,00,25,5.60
2017,04,20,00,26,5.60
2017,04,20,00,27,5.50
2017,04,20,00,28,5.50
2017,04,20,00,29,5.50
2017,04,20,00,30,5.50
2017,04,20,00,31,5.50
2017,04,20,00,32,5.50
2017,04,20,00,33,5.50
2017,04,20,00,34,5.50
2017,04,20,00,35,5.50
2017,04,20,00,36,5.50
2017,04,20,00,37,5.40
2017,04,20,00,38,5.50
2017,04,20,00,39,5.40
2017,04,20,00,40,5.40
2017,04,20,00,41,5.50
2017,04,20,00,42,5.50
2017,04,20,00,43,5.50
2017,04,20,00,44,5.50
2017,04,20,00,45,5.50
2017,04,20,00,46,5.40
2017,04,20,00,47,5.50
2017,04,20,00,48,5.40
2017,04,20,00,49,5.40
2017,04,20,00,50,5.50
2017,04,20,00,51,5.50
2017,04,20,00,52,5.50
2017,04,20,00,53,5.50
2017,04,20,00,54,5.50
2017,04,20,00,55,5.50
2017,04,20,00,56,5.50
2017,04,20,00,57,5.50
2017,04,20,00,58,5.50
2017,04,20,00,59,5.50
2017,04,20,01,00,5.50
2017,04,20,01,01,5.50
2017,04,20,01,02,5.50
2017,04,20,01,03,5.50
2017,04,20,01,04,5.50
2017,04,20,01,05,5.50
2017,04,20,01,06,5.50
2017,04,20,01,07,5.50
2017,04,20,01,08,5.50
2017,04,20,01,09,5.50
2017,04,20,01,10,5.50
2017,04,20,01,11,5.50
2017,04,20,01,12,5.50
2017,04,20,01,13,5.50
2017,04,20,01,14,5.50
2017,04,20,01,15,5.50
2017,04,20,01,16,5.50
2017,04,20,01,17,5.50
2017,04,20,01,18,5.50
2017,04,20,01,19,5.60
2017,04,20,01,20,5.60
2017,04,20,01,21,5.60
2017,04,20,01,22,5.60
2017,04,20,01,23,5.60
2017,04,20,01,24,5.60
2017,04,20,01,25,5.60
2017,04,20,01,26,5.60
2017,04,20,01,27,5.60
2017,04,20,01,28,5.50
2017,04,20,01,29,5.50
2017,04,20,01,30,5.60
2017,04,20,01,31,5.60
2017,04,20,01,32,5.60
2017,04,20,01,33,5.60
2017,04,20,01,34,5.60
2017,04,20,01,35,5.60
2017,04,20,01,36,5.60
2017,04,20,01,37,5.60
2017,04,20,01,38,5.60
2017,04,20,01,39,5.60
2017,04,20,01,40,5.60
2017,04,20,01,41,5.60
2017,04,20,01,42,5.60
2017,04,20,01,43,5.60
2017,04,20,01,44,5.60
2017,04,20,01,45,5.70
2017,04,20,01,46,5.70
2017,04,20,01,47,5.70
2017,04,20,01,48,5.70
2017,04,20,01,49,5.70
2017,04,20,01,50,5.70
2017,04,20,01,51,5.70
2017,04,20,01,52,5.70
2017,04,20,01,53,5.70
2017,04,20,01,54,5.70
2017,04,20,01,55,5.70
2017,04,20,01,56,5.70
2017,04,20,01,57,5.70
2017,04,20,01,58,5.70
2017,04,20,01,59,5.70
2017,04,20,02,00,5.70
2017,04,20,02,01,5.70
2017,04,20,02,02,5.70
2017,04,20,02,03,5.70
2017,04,20,02,04,5.70
2017,04,20,02,05,5.70
2017,04,20,02,06,5.70
2017,04,20,02,07,5.60
2017,04,20,02,08,5.60
2017,04,20,02,09,5.60
2017,04,20,02,10,5.60
2017,04,20,02,11,5.60
2017,04,20,02,12,5.60
2017,04,20,02,13,5.60
2017,04,20,02,14,5.60
2017,04,20,02,15,5.60
2017,04,20,02,16,5.60
2017,04,20,02,17,5.50
2017,04,20,02,18,5.50
2017,04,20,02,19,5.50
2017,04,20,02,20,5.50
2017,04,20,02,21,5.40
2017,04,20,02,22,5.40
2017,04,20,02,23,5.40
2017,04,20,02,24,5.40
2017,04,20,02,25,5.30
2017,04,20,02,26,5.30
2017,04,20,02,27,5.30
2017,04,20,02,28,5.30
2017,04,20,02,29,5.30
2017,04,20,02,30,5.30
2017,04,20,02,31,5.30
2017,04,20,02,32,5.30
2017,04,20,02,33,5.30
2017,04,20,02,34,5.30
2017,04,20,02,35,5.30
2017,04,20,02,36,5.30
2017,04,20,02,37,5.30
2017,04,20,02,38,5.30
2017,04,20,02,39,5.30
2017,04,20,02,40,5.30
2017,04,20,02,41,5.20
2017,04,20,02,42,5.20
2017,04,20,02,43,5.20
2017,04,20,02,44,5.20
2017,04,20,02,45,5.20
2017,04,20,02,46,5.20
2017,04,20,02,47,5.20
2017,04,20,02,48,5.20
2017,04,20,02,49,5.10
2017,04,20,02,50,5.10
2017,04,20,02,51,5.10
2017,04,20,02,52,5.10
2017,04,20,02,53,5.10
2017,04,20,02,54,5.10
2017,04,20,02,55,5.10
2017,04,20,02,56,5.10
2017,04,20,02,57,5.10
2017,04,20,02,58,5.10
2017,04,20,02,59,5.10
2017,04,20,03,00,5.10
2017,04,20,03,01,5.10
2017,04,20,03,02,5.10
2017,04,20,03,03,5.10
2017,04,20,03,04,5.10
2017,04,20,03,05,5.10
2017,04,20,03,06,5.10
2017,04,20,03,07,5.10
2017,04,20,03,08,5.10
2017,04,20,03,09,5.10
2017,04,20,03,10,5.10
2017,04,20,03,11,5.10
2017,04,20,03,12,5.10
2017,04,20,03,13,5.10
2017,04,20,03,14,5.10
2017,04,20,03,15,5.10
2017,04,20,03,16,5.10
2017,04,20,03,17,5.10
2017,04,20,03,18,5.10
2017,04,20,03,19,5.10
2017,04,20,03,20,5.20
2017,04,20,03,21,5.20
2017,04,20,03,22,5.20
2017,04,20,03,23,5.20
2017,04,20,03,24,5.20
2017,04,20,03,25,5.20
2017,04,20,03,26,5.20
2017,04,20,03,27,5.20
2017,04,20,03,28,5.20
2017,04,20,03,29,5.20
2017,04,20,03,30,5.20
2017,04,20,03,31,5.10
2017,04,20,03,32,5.10
2017,04,20,03,33,5.10
2017,04,20,03,34,5.10
2017,04,20,03,35,5.10
2017,04,20,03,36,5.10
2017,04,20,03,37,5.10
2017,04,20,03,38,5.00
2017,04,20,03,39,5.00
2017,04,20,03,40,5.00
2017,04,20,03,41,5.00
2017,04,20,03,42,5.00
2017,04,20,03,43,5.00
2017,04,20,03,44,5.00
2017,04,20,03,45,5.00
2017,04,20,03,46,5.00
2017,04,20,03,47,5.00
2017,04,20,03,48,5.00
2017,04,20,03,49,5.00
2017,04,20,03,50,4.90
2017,04,20,03,51,4.90
2017,04,20,03,52,4.90
2017,04,20,03,53,4.90
2017,04,20,03,54,4.90
2017,04,20,03,55,4.90
2017,04,20,03,56,4.90
2017,04,20,03,57,4.90
2017,04,20,03,58,4.90
2017,04,20,03,59,4.90
2017,04,20,04,00,4.90
2017,04,20,04,01,4.90
2017,04,20,04,02,4.90
2017,04,20,04,03,4.90
2017,04,20,04,04,4.90
2017,04,20,04,05,4.90
2017,04,20,04,06,4.90
2017,04,20,04,07,4.90
2017,04,20,04,08,4.90
2017,04,20,04,09,4.90
2017,04,20,04,10,4.90
2017,04,20,04,11,4.90
2017,04,20,04,12,4.90
2017,04,20,04,13,4.90
2017,04,20,04,14,4.90
2017,04,20,04,15,5.00
2017,04,20,04,16,5.00
2017,04,20,04,17,5.00
2017,04,20,04,18,5.00
2017,04,20,04,19,5.00
2017,04,20,04,20,5.00
2017,04,20,04,21,5.00
2017,04,20,04,22,5.00
2017,04,20,04,23,5.00
2017,04,20,04,24,5.00
2017,04,20,04,25,5.00
2017,04,20,04,26,5.00
2017,04,20,04,27,5.00
2017,04,20,04,28,5.00
2017,04,20,04,29,5.00
2017,04,20,04,30,5.00
2017,04,20,04,31,5.00
2017,04,20,04,32,5.00
2017,04,20,04,33,5.00
2017,04,20,04,34,5.00
2017,04,20,04,35,5.00
2017,04,20,04,36,5.00
2017,04,20,04,37,5.00
2017,04,20,04,38,5.10
2017,04,20,04,39,5.10
2017,04,20,04,40,5.10
2017,04,20,04,41,5.10
2017,04,20,04,42,5.00
2017,04,20,04,43,5.00
2017,04,20,04,44,5.00
2017,04,20,04,45,5.00
2017,04,20,04,46,5.00
2017,04,20,04,47,5.00
2017,04,20,04,48,5.00
2017,04,20,04,49,5.00
2017,04,20,04,50,5.00
2017,04,20,04,51,5.00
2017,04,20,04,52,5.00
2017,04,20,04,53,5.00
2017,04,20,04,54,5.00
2017,04,20,04,55,5.00
2017,04,20,04,56,5.00
2017,04,20,04,57,5.00
2017,04,20,04,58,5.00
2017,04,20,04,59,5.00
2017,04,20,05,00,5.10
2017,04,20,05,01,5.10
2017,04,20,05,02,5.10
2017,04,20,05,03,5.10
2017,04,20,05,04,5.10
2017,04,20,05,05,5.10
2017,04,20,05,06,5.10
2017,04,20,05,07,5.10
2017,04,20,05,08,5.10
2017,04,20,05,09,5.10
2017,04,20,05,10,5.10
2017,04,20,05,11,5.10
2017,04,20,05,12,5.10
2017,04,20,05,13,5.10
2017,04,20,05,14,5.10
2017,04,20,05,15,5.10
2017,04,20,05,16,5.10
2017,04,20,05,17,5.10
2017,04,20,05,18,5.10
2017,04,20,05,19,5.10
2017,04,20,05,20,5.10
2017,04,20,05,21,5.10
2017,04,20,05,22,5.10
2017,04,20,05,23,5.10
2017,04,20,05,24,5.10
2017,04,20,05,25,5.10
2017,04,20,05,26,5.10
2017,04,20,05,27,5.10
2017,04,20,05,28,5.20
2017,04,20,05,29,5.20
2017,04,20,05,30,5.20
2017,04,20,05,31,5.20
2017,04,20,05,32,5.20
2017,04,20,05,33,5.20
2017,04,20,05,34,5.20
2017,04,20,05,35,5.10
2017,04,20,05,36,5.10
2017,04,20,05,37,5.10
2017,04,20,05,38,5.10
2017,04,20,05,39,5.10
2017,04,20,05,40,5.10
2017,04,20,05,41,5.10
2017,04,20,05,42,5.10
2017,04,20,05,43,5.10
2017,04,20,05,44,5.10
2017,04,20,05,45,5.20
2017,04,20,05,46,5.10
2017,04,20,05,47,5.10
2017,04,20,05,48,5.10
2017,04,20,05,49,5.10
2017,04,20,05,50,5.10
2017,04,20,05,51,5.10
2017,04,20,05,52,5.10
2017,04,20,05,53,5.10
2017,04,20,05,54,5.10
2017,04,20,05,55,5.10
2017,04,20,05,56,5.10
2017,04,20,05,57,5.10
2017,04,20,05,58,5.00
2017,04,20,05,59,5.00
2017,04,20,06,00,4.90
2017,04,20,06,01,4.90
2017,04,20,06,02,4.90
2017,04,20,06,03,4.90
2017,04,20,06,04,4.90
2017,04,20,06,05,4.90
2017,04,20,06,06,4.90
2017,04,20,06,07,4.80
2017,04,20,06,08,4.80
2017,04,20,06,09,4.80
2017,04,20,06,10,4.80
2017,04,20,06,11,4.80
2017,04,20,06,12,4.80
2017,04,20,06,13,4.80
2017,04,20,06,14,4.80
2017,04,20,06,15,4.80
2017,04,20,06,16,4.80
2017,04,20,06,17,4.80
2017,04,20,06,18,4.80
2017,04,20,06,19,4.70
2017,04,20,06,20,4.70
2017,04,20,06,21,4.70
2017,04,20,06,22,4.70
2017,04,20,06,23,4.70
2017,04,20,06,24,4.70
2017,04,20,06,25,4.70
2017,04,20,06,26,4.70
2017,04,20,06,27,4.70
2017,04,20,06,28,4.70
2017,04,20,06,29,4.70
2017,04,20,06,30,4.70
2017,04,20,06,31,4.70
2017,04,20,06,32,4.70
2017,04,20,06,33,4.60
2017,04,20,06,34,4.60
2017,04,20,06,35,4.60
2017,04,20,06,36,4.60
2017,04,20,06,37,4.60
2017,04,20,06,38,4.60
2017,04,20,06,39,4.60
2017,04,20,06,40,4.50
2017,04,20,06,41,4.50
2017,04,20,06,42,4.50
2017,04,20,06,43,4.50
2017,04,20,06,44,4.50
2017,04,20,06,45,4.50
2017,04,20,06,46,4.50
2017,04,20,06,47,4.50
2017,04,20,06,48,4.50
2017,04,20,06,49,4.50
2017,04,20,06,50,4.50
2017,04,20,06,51,4.50
2017,04,20,06,52,4.50
2017,04,20,06,53,4.50
2017,04,20,06,54,4.50
2017,04,20,06,55,4.50
2017,04,20,06,56,4.50
2017,04,20,06,57,4.50
2017,04,20,06,58,4.50
2017,04,20,06,59,4.50
2017,04,20,07,00,4.50
2017,04,20,07,01,4.50
2017,04,20,07,02,4.50
2017,04,20,07,03,4.50
2017,04,20,07,04,4.50
2017,04,20,07,05,4.60
2017,04,20,07,06,4.60
2017,04,20,07,07,4.60
2017,04,20,07,08,4.60
2017,04,20,07,09,4.60
2017,04,20,07,10,4.70
2017,04,20,07,11,4.70
2017,04,20,07,12,4.70
2017,04,20,07,13,4.70
2017,04,20,07,14,4.70
2017,04,20,07,15,4.80
2017,04,20,07,16,4.80
2017,04,20,07,17,4.80
2017,04,20,07,18,4.80
2017,04,20,07,19,4.80
2017,04,20,07,20,4.80
2017,04,20,07,21,4.80
2017,04,20,07,22,4.90
2017,04,20,07,23,4.90
2017,04,20,07,24,4.90
2017,04,20,07,25,4.90
2017,04,20,07,26,5.00
2017,04,20,07,27,5.00
2017,04,20,07,28,5.10
2017,04,20,07,29,5.10
2017,04,20,07,30,5.10
2017,04,20,07,31,5.20
2017,04,20,07,32,5.20
2017,04,20,07,33,5.20
2017,04,20,07,34,5.20
2017,04,20,07,35,5.10
2017,04,20,07,36,5.10
2017,04,20,07,37,5.10
2017,04,20,07,38,5.10
2017,04,20,07,39,5.10
2017,04,20,07,40,5.10
2017,04,20,07,41,5.10
2017,04,20,07,42,5.10
2017,04,20,07,43,5.10
2017,04,20,07,44,5.10
2017,04,20,07,45,5.20
2017,04,20,07,46,5.20
2017,04,20,07,47,5.20
2017,04,20,07,48,5.20
2017,04,20,07,49,5.20
2017,04,20,07,50,5.20
2017,04,20,07,51,5.20
2017,04,20,07,52,5.20
2017,04,20,07,53,5.20
2017,04,20,07,54,5.20
2017,04,20,07,55,5.30
2017,04,20,07,56,5.30
2017,04,20,07,57,5.30
2017,04,20,07,58,5.30
2017,04,20,07,59,5.30
2017,04,20,08,00,5.20
2017,04,20,08,01,5.20
2017,04,20,08,02,5.20
2017,04,20,08,03,5.20
2017,04,20,08,04,5.20
2017,04,20,08,05,5.20
2017,04,20,08,06,5.20
2017,04,20,08,07,5.30
2017,04,20,08,08,5.30
2017,04,20,08,09,5.30
2017,04,20,08,10,5.30
2017,04,20,08,11,5.30
2017,04,20,08,12,5.30
2017,04,20,08,13,5.30
2017,04,20,08,14,5.30
2017,04,20,08,15,5.40
2017,04,20,08,16,5.40
2017,04,20,08,17,5.40
2017,04,20,08,18,5.50
2017,04,20,08,19,5.50
2017,04,20,08,20,5.50
2017,04,20,08,21,5.60
2017,04,20,08,22,5.60
2017,04,20,08,23,5.60
2017,04,20,08,24,5.60
2017,04,20,08,25,5.60
2017,04,20,08,26,5.60
2017,04,20,08,27,5.70
2017,04,20,08,28,5.70
2017,04,20,08,29,5.70
2017,04,20,08,30,5.70
2017,04,20,08,31,5.70
2017,04,20,08,32,5.70
2017,04,20,08,33,5.70
2017,04,20,08,34,5.70
2017,04,20,08,35,5.70
2017,04,20,08,36,5.80
2017,04,20,08,37,5.80
2017,04,20,08,38,5.80
2017,04,20,08,39,5.90
2017,04,20,08,40,5.90
2017,04,20,08,41,6.00
2017,04,20,08,42,6.00
2017,04,20,08,43,6.00
2017,04,20,08,44,6.00
2017,04,20,08,45,6.10
2017,04,20,08,46,6.10
2017,04,20,08,47,6.20
2017,04,20,08,48,6.20
2017,04,20,08,49,6.20
2017,04,20,08,50,6.30
2017,04,20,08,51,6.30
2017,04,20,08,52,6.30
2017,04,20,08,53,6.40
2017,04,20,08,54,6.40
2017,04,20,08,55,6.30
2017,04,20,08,56,6.30
2017,04,20,08,57,6.30
2017,04,20,08,58,6.30
2017,04,20,08,59,6.30
2017,04,20,09,00,6.40
2017,04,20,09,01,6.40
2017,04,20,09,02,6.50
2017,04,20,09,03,6.50
2017,04,20,09,04,6.50
2017,04,20,09,05,6.50
2017,04,20,09,06,6.60
2017,04,20,09,07,6.60
2017,04,20,09,08,6.70
2017,04,20,09,09,6.70
2017,04,20,09,10,6.70
2017,04,20,09,11,6.80
2017,04,20,09,12,6.80
2017,04,20,09,13,6.80
2017,04,20,09,14,6.90
2017,04,20,09,15,7.00
2017,04,20,09,16,7.10
2017,04,20,09,17,7.10
2017,04,20,09,18,7.20
2017,04,20,09,19,7.20
2017,04,20,09,20,7.20
2017,04,20,09,21,7.20
2017,04,20,09,22,7.20
2017,04,20,09,23,7.30
2017,04,20,09,24,7.30
2017,04,20,09,25,7.30
2017,04,20,09,26,7.30
2017,04,20,09,27,7.30
2017,04,20,09,28,7.30
2017,04,20,09,29,7.30
2017,04,20,09,30,7.30
2017,04,20,09,31,7.30
2017,04,20,09,32,7.20
2017,04,20,09,33,7.20
2017,04,20,09,34,7.20
2017,04,20,09,35,7.10
2017,04,20,09,36,7.10
2017,04,20,09,37,7.10
2017,04,20,09,38,7.00
2017,04,20,09,39,7.00
2017,04,20,09,40,7.00
2017,04,20,09,41,7.00
2017,04,20,09,42,7.00
2017,04,20,09,43,7.00
2017,04,20,09,44,7.00
2017,04,20,09,45,7.10
2017,04,20,09,46,7.10
2017,04,20,09,47,7.20
2017,04,20,09,48,7.20
2017,04,20,09,49,7.20
2017,04,20,09,50,7.20
2017,04,20,09,51,7.30
2017,04,20,09,52,7.30
2017,04,20,09,53,7.30
2017,04,20,09,54,7.30
2017,04,20,09,55,7.30
2017,04,20,09,56,7.30
2017,04,20,09,57,7.30
2017,04,20,09,58,7.40
2017,04,20,09,59,7.40
2017,04,20,10,00,7.40
2017,04,20,10,01,7.50
2017,04,20,10,02,7.50
2017,04,20,10,03,7.50
2017,04,20,10,04,7.50
2017,04,20,10,05,7.60
2017,04,20,10,06,7.60
2017,04,20,10,07,7.60
2017,04,20,10,08,7.60
2017,04,20,10,09,7.60
2017,04,20,10,10,7.70
2017,04,20,10,11,7.70
2017,04,20,10,12,7.70
2017,04,20,10,13,7.70
2017,04,20,10,14,7.70
2017,04,20,10,15,7.70
2017,04,20,10,16,7.70
2017,04,20,10,17,7.70
2017,04,20,10,18,7.70
2017,04,20,10,19,7.70
2017,04,20,10,20,7.70
2017,04,20,10,21,7.80
2017,04,20,10,22,7.80
2017,04,20,10,23,7.80
2017,04,20,10,24,7.90
2017,04,20,10,25,8.00
2017,04,20,10,26,8.00
2017,04,20,10,27,8.10
2017,04,20,10,28,8.10
2017,04,20,10,29,8.10
2017,04,20,10,30,8.10
2017,04,20,10,31,8.10
2017,04,20,10,32,8.20
2017,04,20,10,33,8.20
2017,04,20,10,34,8.20
2017,04,20,10,35,8.30
2017,04,20,10,36,8.40
2017,04,20,10,37,8.60
2017,04,20,10,38,8.70
2017,04,20,10,39,8.90
2017,04,20,10,40,9.00
2017,04,20,10,41,9.00
2017,04,20,10,42,9.10
2017,04,20,10,43,9.10
2017,04,20,10,44,9.10
2017,04,20,10,45,9.20
2017,04,20,10,46,9.30
2017,04,20,10,47,9.40
2017,04,20,10,48,9.50
2017,04,20,10,49,9.50
2017,04,20,10,50,9.50
2017,04,20,10,51,9.50
2017,04,20,10,52,9.50
2017,04,20,10,53,9.60
2017,04,20,10,54,9.70
2017,04,20,10,55,9.70
2017,04,20,10,56,9.80
2017,04,20,10,57,9.80
2017,04,20,10,58,9.80
2017,04,20,10,59,9.80
2017,04,20,11,00,9.80
2017,04,20,11,01,10.00
2017,04,20,11,02,10.10
2017,04,20,11,03,10.20
2017,04,20,11,04,10.30
2017,04,20,11,05,10.30
2017,04,20,11,06,10.30
2017,04,20,11,07,10.30
2017,04,20,11,08,10.30
2017,04,20,11,09,10.30
2017,04,20,11,10,10.30
2017,04,20,11,11,10.30
2017,04,20,11,12,10.30
2017,04,20,11,13,10.20
2017,04,20,11,14,10.10
2017,04,20,11,15,10.10
2017,04,20,11,16,10.10
2017,04,20,11,17,10.10
2017,04,20,11,18,10.10
2017,04,20,11,19,10.20
2017,04,20,11,20,10.20
2017,04,20,11,21,10.20
2017,04,20,11,22,10.20
2017,04,20,11,23,10.20
2017,04,20,11,24,10.20
2017,04,20,11,25,10.20
2017,04,20,11,26,10.20
2017,04,20,11,27,10.20
2017,04,20,11,28,10.20
2017,04,20,11,29,10.30
2017,04,20,11,30,10.40
2017,04,20,11,31,10.40
2017,04,20,11,32,10.50
2017,04,20,11,33,10.60
2017,04,20,11,34,10.70
2017,04,20,11,35,10.80
2017,04,20,11,36,11.00
2017,04,20,11,37,11.10
2017,04,20,11,38,11.20
2017,04,20,11,39,11.20
2017,04,20,11,40,11.20
2017,04,20,11,41,11.20
2017,04,20,11,42,11.20
2017,04,20,11,43,11.30
2017,04,20,11,44,11.30
2017,04,20,11,45,11.30
2017,04,20,11,46,11.30
2017,04,20,11,47,11.30
2017,04,20,11,48,11.30
2017,04,20,11,49,11.30
2017,04,20,11,50,11.30
2017,04,20,11,51,11.30
2017,04,20,11,52,11.20
2017,04,20,11,53,11.20
2017,04,20,11,54,11.20
2017,04,20,11,55,11.30
2017,04,20,11,56,11.40
2017,04,20,11,57,11.50
2017,04,20,11,58,11.50
2017,04,20,11,59,11.60
2017,04,20,12,00,11.60
2017,04,20,12,01,11.60
2017,04,20,12,02,11.60
2017,04,20,12,03,11.60
2017,04,20,12,04,11.60
2017,04,20,12,05,11.60
2017,04,20,12,06,11.70
2017,04,20,12,07,11.80
2017,04,20,12,08,11.80
2017,04,20,12,09,11.90
2017,04,20,12,10,12.00
2017,04,20,12,11,12.20
2017,04,20,12,12,12.30
2017,04,20,12,13,12.30
2017,04,20,12,14,12.40
2017,04,20,12,15,12.50
2017,04,20,12,16,12.50
2017,04,20,12,17,12.60
2017,04,20,12,18,12.60
2017,04,20,12,19,12.60
2017,04,20,12,20,12.50
2017,04,20,12,21,12.40
2017,04,20,12,22,12.20
2017,04,20,12,23,12.00
2017,04,20,12,24,11.90
2017,04,20,12,25,11.80
2017,04,20,12,26,11.80
2017,04,20,12,27,11.80
2017,04,20,12,28,11.80
2017,04,20,12,29,11.70
2017,04,20,12,30,11.60
2017,04,20,12,31,11.50
2017,04,20,12,32,11.50
2017,04,20,12,33,11.40
2017,04,20,12,34,11.40
2017,04,20,12,35,11.40
2017,04,20,12,36,11.40
2017,04,20,12,37,11.40
2017,04,20,12,38,11.50
2017,04,20,12,39,11.50
2017,04,20,12,40,11.60
2017,04,20,12,41,11.70
2017,04,20,12,42,11.80
2017,04,20,12,43,11.80
2017,04,20,12,44,11.80
2017,04,20,12,45,11.90
2017,04,20,12,46,12.00
2017,04,20,12,47,12.10
2017,04,20,12,48,12.20
2017,04,20,12,49,12.40
2017,04,20,12,50,12.50
2017,04,20,12,51,12.70
2017,04,20,12,52,12.80
2017,04,20,12,53,12.90
2017,04,20,12,54,12.90
2017,04,20,12,55,12.90
2017,04,20,12,56,12.90
2017,04,20,12,57,12.80
2017,04,20,12,58,12.80
2017,04,20,12,59,12.60
2017,04,20,13,00,12.40
2017,04,20,13,01,12.30
2017,04,20,13,02,12.10
2017,04,20,13,03,12.10
2017,04,20,13,04,12.10
2017,04,20,13,05,12.20
2017,04,20,13,06,12.20
2017,04,20,13,07,12.10
2017,04,20,13,08,12.10
2017,04,20,13,09,12.10
2017,04,20,13,10,12.10
2017,04,20,13,11,12.10
2017,04,20,13,12,12.10
2017,04,20,13,13,12.00
2017,04,20,13,14,11.90
2017,04,20,13,15,11.90
2017,04,20,13,16,11.80
2017,04,20,13,17,11.80
2017,04,20,13,18,11.90
2017,04,20,13,19,11.90
2017,04,20,13,20,12.00
2017,04,20,13,21,12.10
2017,04,20,13,22,12.20
2017,04,20,13,23,12.30
2017,04,20,13,24,12.40
2017,04,20,13,25,12.40
2017,04,20,13,26,12.50
2017,04,20,13,27,12.60
2017,04,20,13,28,12.60
2017,04,20,13,29,12.60
2017,04,20,13,30,12.60
2017,04,20,13,31,12.60
2017,04,20,13,32,12.60
2017,04,20,13,33,12.70
2017,04,20,13,34,12.70
2017,04,20,13,35,12.70
2017,04,20,13,36,12.70
2017,04,20,13,37,12.70
2017,04,20,13,38,12.70
2017,04,20,13,39,12.70
2017,04,20,13,40,12.70
2017,04,20,13,41,12.70
2017,04,20,13,42,12.60
2017,04,20,13,43,12.60
2017,04,20,13,44,12.50
2017,04,20,13,45,12.50
2017,04,20,13,46,12.50
2017,04,20,13,47,12.50
2017,04,20,13,48,12.40
2017,04,20,13,49,12.40
2017,04,20,13,50,12.40
2017,04,20,13,51,12.50
2017,04,20,13,52,12.50
2017,04,20,13,53,12.50
2017,04,20,13,54,12.60
2017,04,20,13,55,12.70
2017,04,20,13,56,12.80
2017,04,20,13,57,12.80
2017,04,20,13,58,13.00
2017,04,20,13,59,13.10
2017,04,20,14,00,13.20
2017,04,20,14,01,13.30
2017,04,20,14,02,13.40
2017,04,20,14,03,13.50
2017,04,20,14,04,13.60
2017,04,20,14,05,13.80
2017,04,20,14,06,13.80
2017,04,20,14,07,13.90
2017,04,20,14,08,13.90
2017,04,20,14,09,14.00
2017,04,20,14,10,14.00
2017,04,20,14,11,14.00
2017,04,20,14,12,13.90
2017,04,20,14,13,13.90
2017,04,20,14,14,13.80
2017,04,20,14,15,13.80
2017,04,20,14,16,13.90
2017,04,20,14,17,13.80
2017,04,20,14,18,13.80
2017,04,20,14,19,13.80
2017,04,20,14,20,13.90
2017,04,20,14,21,13.90
2017,04,20,14,22,13.80
2017,04,20,14,23,13.70
2017,04,20,14,24,13.70
2017,04,20,14,25,13.70
2017,04,20,14,26,13.70
2017,04,20,14,27,13.60
2017,04,20,14,28,13.50
2017,04,20,14,29,13.40
2017,04,20,14,30,13.40
2017,04,20,14,31,13.40
2017,04,20,14,32,13.40
2017,04,20,14,33,13.40
2017,04,20,14,34,13.40
2017,04,20,14,35,13.40
2017,04,20,14,36,13.40
2017,04,20,14,37,13.40
2017,04,20,14,38,13.30
2017,04,20,14,39,13.20
2017,04,20,14,40,13.10
2017,04,20,14,41,13.10
2017,04,20,14,42,13.20
2017,04,20,14,43,13.20
2017,04,20,14,44,13.10
2017,04,20,14,45,13.00
2017,04,20,14,46,13.00
2017,04,20,14,47,12.80
2017,04,20,14,48,12.70
2017,04,20,14,49,12.60
2017,04,20,14,50,12.60
2017,04,20,14,51,12.50
2017,04,20,14,52,12.40
2017,04,20,14,53,12.40
2017,04,20,14,54,12.40
2017,04,20,14,55,12.40
2017,04,20,14,56,12.40
2017,04,20,14,57,12.40
2017,04,20,14,58,12.40
2017,04,20,14,59,12.40
2017,04,20,15,00,12.50
2017,04,20,15,01,12.60
2017,04,20,15,02,12.60
2017,04,20,15,03,12.60
2017,04,20,15,04,12.60
2017,04,20,15,05,12.70
2017,04,20,15,06,12.70
2017,04,20,15,07,12.70
2017,04,20,15,08,12.70
2017,04,20,15,09,12.60
2017,04,20,15,10,12.50
2017,04,20,15,11,12.50
2017,04,20,15,12,12.40
2017,04,20,15,13,12.30
2017,04,20,15,14,12.30
2017,04,20,15,15,12.20
2017,04,20,15,16,12.20
2017,04,20,15,17,12.10
2017,04,20,15,18,12.00
2017,04,20,15,19,11.90
2017,04,20,15,20,11.80
2017,04,20,15,21,11.70
2017,04,20,15,22,11.70
2017,04,20,15,23,11.70
2017,04,20,15,24,11.70
2017,04,20,15,25,11.70
2017,04,20,15,26,11.60
2017,04,20,15,27,11.60
2017,04,20,15,28,11.60
2017,04,20,15,29,11.60
2017,04,20,15,30,11.60
2017,04,20,15,31,11.70
2017,04,20,15,32,11.80
2017,04,20,15,33,12.00
2017,04,20,15,34,12.20
2017,04,20,15,35,12.40
2017,04,20,15,36,12.60
2017,04,20,15,37,12.80
2017,04,20,15,38,12.90
2017,04,20,15,39,13.00
2017,04,20,15,40,13.10
2017,04,20,15,41,13.20
2017,04,20,15,42,13.20
2017,04,20,15,43,13.20
2017,04,20,15,44,13.20
2017,04,20,15,45,13.30
2017,04,20,15,46,13.30
2017,04,20,15,47,13.30
2017,04,20,15,48,13.30
2017,04,20,15,49,13.30
2017,04,20,15,50,13.30
2017,04,20,15,51,13.30
2017,04,20,15,52,13.30
2017,04,20,15,53,13.30
2017,04,20,15,54,13.30
2017,04,20,15,55,13.30
2017,04,20,15,56,13.30
2017,04,20,15,57,13.20
2017,04,20,15,58,13.20
2017,04,20,15,59,13.10
2017,04,20,16,00,13.10
2017,04,20,16,01,13.10
2017,04,20,16,02,13.10
2017,04,20,16,03,13.20
2017,04,20,16,04,13.20
2017,04,20,16,05,13.20
2017,04,20,16,06,13.20
2017,04,20,16,07,13.20
2017,04,20,16,08,13.20
2017,04,20,16,09,13.20
2017,04,20,16,10,13.20
2017,04,20,16,11,13.10
2017,04,20,16,12,13.10
2017,04,20,16,13,13.10
2017,04,20,16,14,13.10
2017,04,20,16,15,13.10
2017,04,20,16,16,13.10
2017,04,20,16,17,13.10
2017,04,20,16,18,13.00
2017,04,20,16,19,12.90
2017,04,20,16,20,12.80
2017,04,20,16,21,12.80
2017,04,20,16,22,12.80
2017,04,20,16,23,12.80
2017,04,20,16,24,12.90
2017,04,20,16,25,12.90
2017,04,20,16,26,13.00
2017,04,20,16,27,13.10
2017,04,20,16,28,13.10
2017,04,20,16,29,13.20
2017,04,20,16,30,13.20
2017,04,20,16,31,13.20
2017,04,20,16,32,13.30
2017,04,20,16,33,13.30
2017,04,20,16,34,13.40
2017,04,20,16,35,13.50
2017,04,20,16,36,13.60
2017,04,20,16,37,13.70
2017,04,20,16,38,13.80
2017,04,20,16,39,13.90
2017,04,20,16,40,14.00
2017,04,20,16,41,14.10
2017,04,20,16,42,14.20
2017,04,20,16,43,14.20
2017,04,20,16,44,14.10
2017,04,20,16,45,14.10
2017,04,20,16,46,14.00
2017,04,20,16,47,14.00
2017,04,20,16,48,14.00
2017,04,20,16,49,13.80
2017,04,20,16,50,13.70
2017,04,20,16,51,13.60
2017,04,20,16,52,13.50
2017,04,20,16,53,13.40
2017,04,20,16,54,13.40
2017,04,20,16,55,13.40
2017,04,20,16,56,13.30
2017,04,20,16,57,13.30
2017,04,20,16,58,13.20
2017,04,20,16,59,13.10
2017,04,20,17,00,13.10
2017,04,20,17,01,13.10
2017,04,20,17,02,13.10
2017,04,20,17,03,13.10
2017,04,20,17,04,13.10
2017,04,20,17,05,13.10
2017,04,20,17,06,13.10
2017,04,20,17,07,13.10
2017,04,20,17,08,13.00
2017,04,20,17,09,13.10
2017,04,20,17,10,13.10
2017,04,20,17,11,13.10
2017,04,20,17,12,13.20
2017,04,20,17,13,13.20
2017,04,20,17,14,13.30
2017,04,20,17,15,13.30
2017,04,20,17,16,13.20
2017,04,20,17,17,13.30
2017,04,20,17,18,13.30
2017,04,20,17,19,13.20
2017,04,20,17,20,13.30
2017,04,20,17,21,13.30
2017,04,20,17,22,13.40
2017,04,20,17,23,13.40
2017,04,20,17,24,13.50
2017,04,20,17,25,13.50
2017,04,20,17,26,13.50
2017,04,20,17,27,13.50
2017,04,20,17,28,13.50
2017,04,20,17,29,13.50
2017,04,20,17,30,13.40
2017,04,20,17,31,13.40
2017,04,20,17,32,13.30
2017,04,20,17,33,13.20
2017,04,20,17,34,13.10
2017,04,20,17,35,13.10
2017,04,20,17,36,13.10
2017,04,20,17,37,13.10
2017,04,20,17,38,13.10
2017,04,20,17,39,13.10
2017,04,20,17,40,13.10
2017,04,20,17,41,13.20
2017,04,20,17,42,13.10
2017,04,20,17,43,13.00
2017,04,20,17,44,12.90
2017,04,20,17,45,12.80
2017,04,20,17,46,12.70
2017,04,20,17,47,12.50
2017,04,20,17,48,12.30